Location: Newark
(45.0500°N, 41.9667°E)
Time: 12:15:39
(UTC+00:00)

Starlink (trailer) - Pass Details

Date: 23 July 2019
Orbit: 549 x 550 km, 53.0° (Epoch: 20 August)

Event Time Altitude Azimuth Distance (km) Brightness Sun altitude
Exits shadow 21:15:44 30° 72° (ENE) 991 5.0 -25.0°
Drops below altitude 10° 21:17:59 10° 62° (ENE) 1,826 6.6 -25.0°
Sets 21:20:15 0° 59° (ENE) 2,723 7.6 -25.0°
